Weather History for Bandar Lengeh, Iran

Change the Weather History Date:

Tuesday, October 15, 2013

  Actual Average Record
Temperature  
Mean Temperature 83 °F -  
Max Temperature 93 °F 88 °F - ()
Min Temperature 73 °F 70 °F - ()
Cooling Degree Days 18    
Growing Degree Days 33 (Base 50)    
Moisture  
Dew Point 59 °F    
Average Humidity 40    
Maximum Humidity 58    
Minimum Humidity 11    
Precipitation  
Precipitation 0.00 in 0.00 in - ()
Sea Level Pressure  
Sea Level Pressure 29.83 in    
Wind  
Wind Speed 5 mph ()    
Max Wind Speed 14 mph    
Max Gust Speed -    
Visibility 5.3 miles    
Events      
T = Trace of Precipitation, MM = Missing Value Source: Averaged Metar Reports

Daily Weather History Graph

Daily Weather History Graph

Search for Another Location

Airport:

Trip Planner

Search our weather history database for the weather conditions in past years. The results will help you decide how hot, cold, wet, or windy it might be!

Date:

Astronomy

Oct. 15, 2013 Rise Set
Actual Time 5:49 AM IRST 5:22 PM IRST
Civil Twilight 5:26 AM IRST 5:45 PM IRST
Nautical Twilight 4:59 AM IRST 6:12 PM IRST
Astronomical Twilight 4:32 AM IRST 6:39 PM IRST
Moon 2:56 PM IRST (10/15) 2:06 AM IRST (10/15)
Length of Visible Light 12h 19m
Length of Day
11h 32m
Waxing Gibbous, 85% of the Moon is Illuminated
Oct 15
Waxing Gibbous
Oct 19
Full
Oct 27
Last Quarter
Nov 3
New
Nov 10
First Quarter

Hourly Weather History & Observations

Time (IRST) Temp. Heat Index Dew Point Humidity Pressure Visibility Wind Dir Wind Speed Gust Speed Precip Events Conditions
12:30 AM 77.0 °F - 59.0 °F 54% 29.80 in 5.0 mi Calm Calm - N/A   Clear
3:20 AM 73.4 °F - 57.2 °F 57% 29.80 in 5.0 mi NNW 6.9 mph - N/A   Clear
3:30 AM 74 °F - 57 °F 45% 29.81 in 5 mi NNW 6.7 mph - -   Haze
3:30 AM 73.4 °F - 57.2 °F 57% 29.80 in 5.0 mi NNW 6.9 mph - N/A   Clear
6:20 AM 73.4 °F - 55.4 °F 53% 29.83 in 5.0 mi Calm Calm - N/A   Clear
6:30 AM 73.4 °F - 55.4 °F 53% 29.83 in 5.0 mi Calm Calm - N/A   Clear
7:20 AM 82.4 °F 82.0 °F 57.2 °F 42% 29.86 in 5.0 mi Calm Calm - N/A   Clear
7:30 AM 82.4 °F 82.0 °F 57.2 °F 42% 29.86 in 5.0 mi Calm Calm - N/A   Clear
8:20 AM 86.0 °F 85.4 °F 59.0 °F 40% 29.89 in - Calm Calm - N/A   Clear
8:30 AM 86.0 °F 85.4 °F 59.0 °F 40% 29.89 in - Calm Calm - N/A   Clear
9:30 AM 89 °F - 65 °F 34% 29.90 in 6 mi SE 4.5 mph - -  
9:30 AM 87.8 °F 89.4 °F 64.4 °F 46% 29.89 in - SE 4.6 mph - N/A   Clear
10:20 AM 89.6 °F 91.1 °F 64.4 °F 43% 29.89 in - SSE 6.9 mph - N/A   Clear
10:30 AM 89.6 °F 91.1 °F 64.4 °F 43% 29.89 in - SSE 6.9 mph - N/A   Clear
11:20 AM 91.4 °F 92.1 °F 62.6 °F 38% 29.86 in - SSE 6.9 mph - N/A   Clear
11:30 AM 91.4 °F 92.1 °F 62.6 °F 38% 29.86 in - SSE 6.9 mph - N/A   Clear
12:20 PM 93.2 °F - 51.8 °F 24% 29.83 in - SE 9.2 mph - N/A   Clear
12:30 PM 93.2 °F - 51.8 °F 24% 29.83 in - SE 9.2 mph - N/A   Clear
1:20 PM 93.2 °F - 51.8 °F 24% 29.83 in - SSE 6.9 mph - N/A   Clear
1:30 PM 93.2 °F - 51.8 °F 24% 29.83 in - SSE 6.9 mph - N/A   Clear
2:20 PM 93.2 °F 91.3 °F 55.4 °F 28% 29.83 in - SSE 9.2 mph - N/A   Clear
2:30 PM 93.2 °F 91.3 °F 55.4 °F 28% 29.83 in - SSE 9.2 mph - N/A   Clear
3:30 PM 93 °F - 44 °F 11% 29.86 in 6 mi South 8.9 mph - -  
3:30 PM 93.2 °F - 44.6 °F 19% 29.83 in - South 9.2 mph - N/A   Clear
4:20 PM 89.6 °F 87.7 °F 55.4 °F 31% 29.80 in - West 11.5 mph - N/A   Clear
4:30 PM 89.6 °F 87.7 °F 55.4 °F 31% 29.80 in - West 11.5 mph - N/A   Clear
5:20 PM 87.8 °F 86.5 °F 57.2 °F 35% 29.80 in - West 13.8 mph - N/A   Clear
5:30 PM 87.8 °F 86.5 °F 57.2 °F 35% 29.80 in - West 13.8 mph - N/A   Clear
6:20 PM 87.8 °F 87.6 °F 60.8 °F 40% 29.80 in - West 9.2 mph - N/A   Clear
6:30 PM 87.8 °F 87.6 °F 60.8 °F 40% 29.80 in - West 9.2 mph - N/A   Clear
7:20 PM 86.0 °F 87.3 °F 64.4 °F 48% 29.80 in - West 9.2 mph - N/A   Clear
7:30 PM 86.0 °F 87.3 °F 64.4 °F 48% 29.80 in - West 9.2 mph - N/A   Clear
8:20 PM 84.2 °F 86.6 °F 66.2 °F 55% 29.83 in - West 6.9 mph - N/A   Clear
8:30 PM 84.2 °F 86.6 °F 66.2 °F 55% 29.83 in - West 6.9 mph - N/A   Clear
9:20 PM 84.2 °F 87.3 °F 68.0 °F 58% 29.83 in - West 4.6 mph - N/A   Clear
9:30 PM 83 °F - 68 °F 51% 29.84 in 6 mi West 4.5 mph - -  
9:30 PM 84.2 °F 87.3 °F 68.0 °F 58% 29.83 in - West 4.6 mph - N/A   Clear